Location: Unspecified
(0.0000°N, 0.0000°E)
Time: 14:57:08
(UTC+00:00)

CZ-4 DEB - Pass Details

Date: 18 June 2024
Orbit: 785 x 976 km, 99.1° (Epoch: 18 July)

Event Time Altitude Azimuth Distance (km) Brightness Sun altitude
Exits shadow 21:12:09 18° 263° (W) 2,160 ? -42.7°
Drops below altitude 10° 21:15:37 10° 298° (WNW) 2,695 ? -43.5°
Sets 21:18:56 0° 316° (NW) 3,654 ? -44.2°
